Weather History for Roswell, NM

Change the Weather History Date:

Saturday, January 19, 2013

  Actual Average Record
Temperature  
Mean Temperature 46 °F 41 °F  
Max Temperature 67 °F 55 °F 80 °F (2000)
Min Temperature 24 °F 26 °F 6 °F (1963)
Degree Days  
Heating Degree Days 19 24  
Month to date heating degree days 555 478  
Since 1 July heating degree days 1712 1888  
Cooling Degree Days 0 0  
Month to date cooling degree days 0 0  
Year to date cooling degree days 0 0  
Moisture  
Dew Point 15 °F    
Average Humidity 39    
Maximum Humidity 69    
Minimum Humidity 9    
Precipitation  
Precipitation 0.00 in 0.01 in 0.46 in (1993)
Month to date precipitation 0.41 0.22  
Year to date precipitation 0.41 0.22  
Sea Level Pressure  
Sea Level Pressure 30.16 in    
Wind  
Wind Speed 5 mph (North)    
Max Wind Speed 17 mph    
Max Gust Speed 24 mph    
Visibility 10 miles    
Events      
T = Trace of Precipitation, MM = Missing Value Source: NWS Daily Summary

Daily Weather History Graph

Daily Weather History Graph

Search for Another Location

Airport:

Trip Planner

Search our weather history database for the weather conditions in past years. The results will help you decide how hot, cold, wet, or windy it might be!

Date:

Astronomy

Jan. 19, 2013 Rise Set
Actual Time 7:00 AM MST 5:17 PM MST
Civil Twilight 6:33 AM MST 5:44 PM MST
Nautical Twilight 6:03 AM MST 6:14 PM MST
Astronomical Twilight 5:33 AM MST 6:44 PM MST
Moon 11:42 AM MST (1/19) 12:41 AM MST (1/19)
Length of Visible Light 11h 10m
Length of Day
10h 17m
First Quarter, 58% of the Moon is Illuminated
Jan 19
First Quarter
Jan 26
Full
Feb 3
Last Quarter
Feb 10
New
Feb 17
First Quarter

Hourly Weather History & Observations

Time (MST) Temp. Windchill Dew Point Humidity Pressure Visibility Wind Dir Wind Speed Gust Speed Precip Events Conditions
12:51 AM 34.0 °F - 19.9 °F 56% 30.11 in 10.0 mi Calm Calm - N/A   Clear
1:51 AM 30.0 °F 24.1 °F 19.0 °F 64% 30.11 in 10.0 mi WSW 5.8 mph - N/A   Clear
2:51 AM 33.1 °F 28.7 °F 19.9 °F 59% 30.09 in 10.0 mi WNW 4.6 mph - N/A   Clear
3:51 AM 28.9 °F - 19.0 °F 67% 30.10 in 10.0 mi Calm Calm - N/A   Clear
4:51 AM 30.0 °F 26.5 °F 19.9 °F 66% 30.11 in 10.0 mi NNW 3.5 mph - N/A   Clear
5:51 AM 30.0 °F 26.5 °F 19.9 °F 66% 30.14 in 10.0 mi NNW 3.5 mph - N/A   Clear
6:51 AM 28.9 °F - 19.9 °F 69% 30.16 in 10.0 mi Calm Calm - N/A   Clear
7:51 AM 28.9 °F - 19.9 °F 69% 30.19 in 10.0 mi Calm Calm - N/A   Clear
8:51 AM 39.0 °F - 23.0 °F 53% 30.19 in 10.0 mi Calm Calm - N/A   Clear
9:51 AM 46.9 °F - 21.9 °F 37% 30.22 in 10.0 mi North 5.8 mph - N/A   Clear
10:51 AM 53.1 °F - 21.9 °F 30% 30.19 in 10.0 mi Calm Calm - N/A   Clear
11:51 AM 59.0 °F - 19.0 °F 21% 30.15 in 10.0 mi Calm Calm - N/A   Clear
12:51 PM 66.0 °F - 10.9 °F 12% 30.09 in 10.0 mi NNW 16.1 mph 21.9 mph N/A   Clear
1:51 PM 66.0 °F - 7.0 °F 10% 30.10 in 10.0 mi NNE 16.1 mph - N/A   Clear
2:51 PM 66.0 °F - 10.0 °F 11% 30.10 in 10.0 mi NNE 12.7 mph - N/A   Clear
3:51 PM 66.0 °F - 7.0 °F 10% 30.12 in 10.0 mi NNE 11.5 mph - N/A   Clear
4:51 PM 62.1 °F - 9.0 °F 12% 30.14 in 10.0 mi North 6.9 mph - N/A   Clear
5:51 PM 51.1 °F - 9.0 °F 18% 30.18 in 10.0 mi North 6.9 mph - N/A   Clear
6:51 PM 48.9 °F - 10.9 °F 22% 30.22 in 10.0 mi NE 5.8 mph - N/A   Clear
7:51 PM 48.0 °F - 10.9 °F 22% 30.24 in 10.0 mi Calm Calm - N/A   Clear
8:51 PM 42.1 °F 40.2 °F 12.0 °F 29% 30.24 in 10.0 mi North 3.5 mph - N/A   Clear
9:51 PM 39.9 °F 37.8 °F 10.9 °F 31% 30.25 in 10.0 mi NW 3.5 mph - N/A   Clear
10:51 PM 37.0 °F 32.4 °F 10.9 °F 34% 30.25 in 10.0 mi West 5.8 mph - N/A   Clear